Location: French Creek State Gamelands
(40.1750°N, 75.7969°W)
Time: 10:41:12
(UTC-05:00)

ISS - All Passes

Search period start: 22 December 2014 00:00
Search period end: 01 January 2015 00:00
Orbit: 404 x 414 km, 51.6° (Epoch: 22 December)

Date Brightness Start Highest point End Pass type
(mag) Time Alt. Az. Time Alt. Az. Time Alt. Az.
22 Dec - 12:12:24 10° SSW 12:15:18 29° SE 12:18:12 10° ENE daylight
22 Dec - 13:48:47 10° W 13:51:49 33° NNW 13:54:52 10° NE daylight
22 Dec - 15:27:37 10° NW 15:29:10 13° N 15:30:43 10° NNE daylight
22 Dec - 17:05:10 10° NNW 17:06:51 13° NNE 17:08:33 10° NE daylight
22 Dec - 18:41:01 10° NW 18:44:08 39° NNE 18:47:14 10° ESE visible
22 Dec - 20:17:55 10° W 20:20:33 22° SW 20:23:10 10° S night (unlit)
23 Dec - 11:22:34 10° S 11:24:38 16° SE 11:26:42 10° E daylight
23 Dec - 12:57:39 10° WSW 13:00:54 55° NW 13:04:10 10° NE daylight
23 Dec - 14:36:02 10° NW 14:38:03 15° NNW 14:40:04 10° NNE daylight
23 Dec - 16:14:25 10° NNW 16:15:43 12° N 16:17:00 10° NNE daylight
23 Dec - 17:50:21 10° NNW 17:53:10 26° NNE 17:55:58 10° E visible
23 Dec - 19:26:43 10° WNW 19:29:51 43° SW 19:32:57 10° SSE visible
24 Dec - 12:06:43 10° SW 12:10:01 80° SE 12:13:20 10° NE daylight
24 Dec - 13:44:27 10° WNW 13:46:56 19° NNW 13:49:24 10° NNE daylight
24 Dec - 15:23:22 10° NNW 15:24:30 11° N 15:25:38 10° NNE daylight
24 Dec - 16:59:41 10° NNW 17:02:06 19° NNE 17:04:30 10° ENE daylight
24 Dec - 18:35:44 10° NW 18:39:02 85° SW 18:42:17 10° SE visible
25 Dec - 11:16:03 10° SSW 11:19:11 40° SE 11:22:18 10° ENE daylight
25 Dec - 12:52:57 10° W 12:55:50 27° NNW 12:58:42 10° NE daylight
25 Dec - 14:31:55 10° NNW 14:33:16 12° N 14:34:36 10° NNE daylight
25 Dec - 16:08:59 10° NNW 16:10:56 15° NNE 16:12:52 10° NE daylight
25 Dec - 17:44:52 10° NW 17:48:06 52° NNE 17:51:17 10° ESE visible
25 Dec - 19:22:13 10° W 19:24:22 16° SW 19:26:30 10° S visible
26 Dec - 10:25:46 10° S 10:28:22 21° SE 10:30:58 10° E daylight
26 Dec - 12:01:35 10° WSW 12:04:45 42° NNW 12:07:55 10° NE daylight
26 Dec - 13:40:13 10° NW 13:42:00 14° NNW 13:43:46 10° NNE daylight
26 Dec - 15:18:11 10° NNW 15:19:41 12° N 15:21:10 10° NE daylight
26 Dec - 16:54:03 10° NW 16:57:02 31° NNE 17:00:01 10° E daylight
26 Dec - 18:30:39 10° WNW 18:33:35 30° SW 18:36:29 10° SSE visible
27 Dec - 09:36:25 10° SSE 09:37:35 12° SE 09:38:45 10° ESE daylight
27 Dec - 11:10:25 10° WSW 11:13:43 75° NW 11:17:01 10° NE daylight
27 Dec - 12:48:29 10° WNW 12:50:44 17° NNW 12:52:59 10° NNE daylight
27 Dec - 14:27:10 10° NNW 14:28:21 11° N 14:29:32 10° NNE daylight
27 Dec - 16:03:14 10° NNW 16:05:53 22° NNE 16:08:30 10° ENE daylight
27 Dec - 17:39:26 10° WNW 17:42:40 60° SW 17:45:53 10° SE visible
28 Dec - 10:19:27 10° SW 10:22:42 57° SE 10:25:58 10° ENE daylight
28 Dec - 11:56:47 10° WNW 11:59:28 22° NNW 12:02:10 10° NNE daylight
28 Dec - 13:35:46 10° NNW 13:36:59 12° N 13:38:11 10° NNE daylight
28 Dec - 15:12:25 10° NNW 15:14:37 16° NNE 15:16:48 10° ENE daylight
28 Dec - 16:48:22 10° NW 16:51:39 71° NE 16:54:54 10° ESE daylight
28 Dec - 18:26:29 10° WSW 18:27:47 12° SW 18:29:05 10° SSW visible
29 Dec - 09:28:49 10° SSW 09:31:44 29° SE 09:34:39 10° ENE daylight
29 Dec - 11:05:12 10° W 11:08:15 33° NNW 11:11:17 10° NE daylight
29 Dec - 12:44:02 10° NW 12:45:35 13° N 12:47:08 10° NNE daylight
29 Dec - 14:21:32 10° NNW 14:23:15 13° NNE 14:24:58 10° NE daylight
29 Dec - 15:57:23 10° NW 16:00:30 40° NNE 16:03:37 10° ESE daylight
29 Dec - 17:34:17 10° W 17:36:54 22° SW 17:39:31 10° S visible
30 Dec - 08:38:43 10° S 08:40:47 16° SE 08:42:53 10° E daylight
30 Dec - 10:13:47 10° WSW 10:17:02 55° NW 10:20:18 10° NE daylight
30 Dec - 11:52:09 10° NW 11:54:10 15° NNW 11:56:11 10° NNE daylight
30 Dec - 13:30:30 10° NNW 13:31:49 12° N 13:33:08 10° NNE daylight
30 Dec - 15:06:25 10° NNW 15:09:15 26° NNE 15:12:04 10° E daylight
30 Dec - 16:42:47 10° WNW 16:45:55 42° SW 16:49:01 10° SSE daylight
31 Dec - 09:22:34 10° SW 09:25:52 80° SE 09:29:11 10° NE daylight
31 Dec - 11:00:16 10° WNW 11:02:45 19° NNW 11:05:15 10° NNE daylight
31 Dec - 12:39:10 10° NNW 12:40:19 11° N 12:41:28 10° NNE daylight
31 Dec - 14:15:28 10° NNW 14:17:54 19° NNE 14:20:19 10° ENE daylight
31 Dec - 15:51:31 10° NW 15:54:48 85° SW 15:58:04 10° SE daylight
